Simultaneous Nadir Overpasses (SNOs) Predictions

Prediction of SNOs between AQUA and METOP-B Satellite Orbit:

Table of predicted SNOs for the next 14.0 days since TLE Epoch: 2/29/2020
Index Date (AQUA) Time (AQUA) Lat,Lon (AQUA) SZA (AQUA ) Date (METOP-B) Time (METOP-B) Lat,Lon (METOP-B) SZA (METOP-B ) Distance(km) Time Diff (sec)
1 03/01/2020 20:58:33 73.45,-139.64 80.68 03/01/2020 20:57:23 73.42,-140.95 80.72 41.82 70
2 03/01/2020 21:48:06 -73.81, 27.23 98.95 03/01/2020 21:47:57 -73.82, 27.30 98.95 2.44 9
3 03/01/2020 22:37:34 73.87,-165.25 81.10 03/01/2020 22:38:36 73.85,-165.29 81.07 2.62 62
4 03/04/2020 16:32:55 73.74, -73.81 79.90 03/04/2020 16:31:41 73.68, -73.94 79.86 7.41 74
5 03/04/2020 17:22:22 -73.78, 93.73 100.07 03/04/2020 17:22:21 -73.78, 93.63 100.06 3.26 1
6 03/04/2020 18:11:51 73.89, -98.87 80.04 03/04/2020 18:12:59 73.86, -98.85 80.00 3.10 68
7 03/07/2020 12:07:11 73.77, -7.44 78.83 03/07/2020 12:06:02 73.75, -7.38 78.82 2.93 69
8 03/07/2020 12:56:38 -73.81, 160.11 101.14 03/07/2020 12:56:43 -73.80, 160.07 101.15 1.72 5
9 03/07/2020 13:46:07 73.92, -32.49 78.97 03/07/2020 13:47:20 73.92, -32.29 78.96 6.20 73
10 03/10/2020 07:41:27 73.75, 59.04 77.71 03/10/2020 07:40:25 73.76, 59.06 77.73 1.16 62
11 03/10/2020 08:30:54 -73.79,-133.42 102.27 03/10/2020 08:31:06 -73.81,-133.49 102.25 3.29 12
12 03/10/2020 09:20:28 74.16, 33.39 78.12 03/10/2020 09:21:38 74.18, 34.75 78.08 41.38 70
13 03/13/2020 03:15:43 73.74, 125.50 76.58 03/13/2020 03:14:48 73.77, 125.49 76.62 3.54 55
14 03/13/2020 04:05:11 -73.83, -67.07 103.34 03/13/2020 04:05:29 -73.82, -67.06 103.35 1.22 18




NCC Satellite Simultaneous Nadir Overpasses (SNOs) Prediction Service
